Weather History for Jerome, ID

Change the Weather History Date:

Thursday, April 17, 2014

  Actual Average Record
Temperature  
Mean Temperature 53 °F 47 °F  
Max Temperature 73 °F 59 °F 84 °F (1984)
Min Temperature 32 °F 35 °F 18 °F (1964)
Degree Days  
Heating Degree Days 12 18  
Month to date heating degree days 293 333  
Since 1 July heating degree days 5661 5989  
Cooling Degree Days 0 0  
Month to date cooling degree days 0 0  
Year to date cooling degree days 0 0  
Growing Degree Days 4 (Base 50)    
Moisture  
Dew Point 26 °F    
Average Humidity 37    
Maximum Humidity 52    
Minimum Humidity 22    
Precipitation  
Precipitation T in 0.05 in 0.65 in (2006)
Month to date precipitation 0.12 0.74  
Year to date precipitation 3.77 3.76  
Sea Level Pressure  
Sea Level Pressure 29.85 in    
Wind  
Wind Speed 9 mph (ESE)    
Max Wind Speed 26 mph    
Max Gust Speed 38 mph    
Visibility 10 miles    
Events      
T = Trace of Precipitation, MM = Missing Value Source: NWS Daily Summary

Daily Weather History Graph

Daily Weather History Graph

Search for Another Location

Airport:

Trip Planner

Search our weather history database for the weather conditions in past years. The results will help you decide how hot, cold, wet, or windy it might be!

Date:

Astronomy

Apr. 17, 2014 Rise Set
Actual Time 6:53 AM MDT 8:22 PM MDT
Civil Twilight 6:23 AM MDT 8:52 PM MDT
Nautical Twilight 5:47 AM MDT 9:27 PM MDT
Astronomical Twilight 5:10 AM MDT 10:05 PM MDT
Moon 11:15 PM MDT (4/17) 8:25 AM MDT (4/17)
Length of Visible Light 14h 28m
Length of Day
13h 29m
Waning Gibbous, 93% of the Moon is Illuminated
Apr 17
Waning Gibbous
Apr 22
Last Quarter
Apr 29
New
May 6
First Quarter
May 14
Full

Hourly Weather History & Observations

Time (MDT) Temp. Windchill Dew Point Humidity Pressure Visibility Wind Dir Wind Speed Gust Speed Precip Events Conditions
12:53 AM 43.0 °F 39.5 °F 21.0 °F 42% 30.00 in 10.0 mi South 5.8 mph - N/A   Clear
1:53 AM 39.9 °F 35.1 °F 21.0 °F 47% 30.01 in 10.0 mi SE 6.9 mph - N/A   Clear
2:53 AM 37.9 °F 33.5 °F 21.0 °F 51% 30.01 in 10.0 mi SE 5.8 mph - N/A   Clear
3:53 AM 37.0 °F 32.4 °F 21.0 °F 52% 30.00 in 10.0 mi SE 5.8 mph - N/A   Clear
4:53 AM 36.0 °F 33.3 °F 19.9 °F 52% 30.00 in 10.0 mi East 3.5 mph - N/A   Clear
5:53 AM 35.1 °F 30.1 °F 19.9 °F 54% 29.99 in 10.0 mi East 5.8 mph - N/A   Clear
6:53 AM 37.9 °F 33.5 °F 19.9 °F 48% 30.00 in 10.0 mi ESE 5.8 mph - N/A   Clear
7:53 AM 41.0 °F 35.8 °F 21.9 °F 47% 30.00 in 10.0 mi East 8.1 mph - N/A   Clear
8:53 AM 46.0 °F 42.5 °F 23.0 °F 40% 30.00 in 10.0 mi East 6.9 mph - N/A   Clear
11:53 AM 60.1 °F - 24.1 °F 25% 29.93 in 10.0 mi ESE 10.4 mph - N/A   Clear
12:53 PM 62.1 °F - 25.0 °F 24% 29.90 in 10.0 mi ESE 8.1 mph - N/A   Clear
1:53 PM 63.0 °F - 26.1 °F 25% 29.87 in 10.0 mi Calm Calm - N/A   Clear
2:53 PM 66.9 °F - 27.0 °F 22% 29.84 in 10.0 mi Calm Calm - N/A   Clear
3:53 PM 71.1 °F - 30.0 °F 22% 29.80 in 10.0 mi North 8.1 mph - N/A   Clear
4:53 PM 71.1 °F - 30.0 °F 22% 29.75 in 10.0 mi North 6.9 mph - N/A   Clear
5:53 PM 72.0 °F - 32.0 °F 23% 29.72 in 10.0 mi NNE 13.8 mph - N/A   Clear
6:53 PM 70.0 °F - 34.0 °F 27% 29.70 in 10.0 mi NNE 15.0 mph - N/A   Clear
7:53 PM 63.0 °F - 35.1 °F 35% 29.68 in 10.0 mi NNE 13.8 mph - N/A   Partly Cloudy
8:53 PM 68.0 °F - 30.0 °F 24% 29.64 in 10.0 mi East 17.3 mph 24.2 mph 0.00 in   Mostly Cloudy
9:53 PM 64.9 °F - 32.0 °F 29% 29.64 in 10.0 mi SE 11.5 mph - N/A   Overcast
10:53 PM 63.0 °F - 30.9 °F 30% 29.64 in 10.0 mi SE 10.4 mph - N/A   Overcast
11:39 PM 64.0 °F - 30.0 °F 28% 29.73 in 10.0 mi South 21.9 mph 33.4 mph N/A   Overcast
11:53 PM 63.0 °F - 33.1 °F 33% 29.65 in 10.0 mi SW 19.6 mph 28.8 mph N/A   Overcast